Weather History for Dalhart, TX

Change the Weather History Date:

Tuesday, April 22, 2014

  Actual Average Record
Temperature  
Mean Temperature 66 °F 56 °F  
Max Temperature 85 °F 71 °F 94 °F (1989)
Min Temperature 47 °F 40 °F 27 °F (1982)
Degree Days  
Heating Degree Days 0 10  
Month to date heating degree days 256 280  
Since 1 July heating degree days 4439 4534  
Cooling Degree Days 1 0  
Month to date cooling degree days 3 0  
Year to date cooling degree days 3 0  
Growing Degree Days 16 (Base 50)    
Moisture  
Dew Point 42 °F    
Average Humidity 49    
Maximum Humidity 80    
Minimum Humidity 17    
Precipitation  
Precipitation 0.00 in 0.04 in 0.36 in (1957)
Month to date precipitation 0.11 0.73  
Year to date precipitation 0.29 2.82  
Snow  
Snow 0.00 in 0.10 in 2.00 in (1995)
Month to date snowfall 1.0 1.1  
Since 1 July snowfall 17.4 18.8  
Snow Depth 0.00 in    
Sea Level Pressure  
Sea Level Pressure 29.93 in    
Wind  
Wind Speed 15 mph (South)    
Max Wind Speed 30 mph    
Max Gust Speed 38 mph    
Visibility 10 miles    
Events      
T = Trace of Precipitation, MM = Missing Value Source: NWS Daily Summary

Daily Weather History Graph

Daily Weather History Graph

Search for Another Location

Airport:

Trip Planner

Search our weather history database for the weather conditions in past years. The results will help you decide how hot, cold, wet, or windy it might be!

Date:

Astronomy

Apr. 22, 2014 Rise Set
Actual Time 7:08 AM CDT 8:29 PM CDT
Civil Twilight 6:41 AM CDT 8:56 PM CDT
Nautical Twilight 6:09 AM CDT 9:28 PM CDT
Astronomical Twilight 5:35 AM CDT 10:02 PM CDT
Moon 2:45 AM CDT (4/22) 1:46 PM CDT (4/22)
Length of Visible Light 14h 15m
Length of Day
13h 21m
Last Quarter, 46% of the Moon is Illuminated
Apr 22
Last Quarter
Apr 29
New
May 6
First Quarter
May 14
Full
May 21
Last Quarter

Hourly Weather History & Observations

Time (CDT) Temp. Dew Point Humidity Pressure Visibility Wind Dir Wind Speed Gust Speed Precip Events Conditions
12:53 AM 55.9 °F 45.0 °F 67% 30.09 in 10.0 mi East 8.1 mph - N/A   Clear
1:53 AM 55.0 °F 45.0 °F 69% 30.09 in 10.0 mi East 6.9 mph - N/A   Clear
2:53 AM 55.9 °F 46.0 °F 69% 30.05 in 10.0 mi SSE 9.2 mph - N/A   Clear
3:53 AM 55.9 °F 46.0 °F 69% 30.05 in 10.0 mi South 6.9 mph - N/A   Clear
4:53 AM 55.9 °F 45.0 °F 67% 30.06 in 10.0 mi Calm Calm - N/A   Clear
5:53 AM 53.1 °F 45.0 °F 74% 30.07 in 10.0 mi Calm Calm - N/A   Clear
6:53 AM 50.0 °F 43.0 °F 77% 30.08 in 9.0 mi Calm Calm - N/A   Clear
7:53 AM 48.9 °F 43.0 °F 80% 30.10 in 6.0 mi WNW 3.5 mph - N/A   Haze
8:53 AM 57.0 °F 46.0 °F 67% 30.09 in 8.0 mi South 4.6 mph - N/A   Clear
9:53 AM 63.0 °F 45.0 °F 52% 30.08 in 10.0 mi South 15.0 mph 21.9 mph N/A   Clear
10:53 AM 66.9 °F 48.0 °F 51% 30.06 in 10.0 mi SW 20.7 mph 24.2 mph N/A   Clear
11:53 AM 71.1 °F 46.0 °F 41% 30.02 in 10.0 mi SSW 23.0 mph 33.4 mph N/A   Clear
12:53 PM 75.0 °F 46.9 °F 37% 29.97 in 10.0 mi SSW 19.6 mph 29.9 mph N/A   Clear
1:53 PM 79.0 °F 44.1 °F 29% 29.92 in 10.0 mi South 24.2 mph 32.2 mph N/A   Clear
2:53 PM 81.0 °F 39.9 °F 23% 29.87 in 10.0 mi SSW 24.2 mph 33.4 mph N/A   Clear
3:53 PM 81.0 °F 37.9 °F 21% 29.82 in 10.0 mi South 25.3 mph 34.5 mph N/A   Clear
4:53 PM 84.0 °F 36.0 °F 18% 29.77 in 10.0 mi SSW 21.9 mph 36.8 mph N/A   Clear
5:53 PM 84.0 °F 35.1 °F 17% 29.75 in 10.0 mi SSW 24.2 mph 34.5 mph N/A   Scattered Clouds
6:53 PM 80.1 °F 35.1 °F 20% 29.75 in 10.0 mi SSW 19.6 mph 27.6 mph N/A   Partly Cloudy
7:53 PM 80.1 °F 35.1 °F 20% 29.73 in 10.0 mi SSW 24.2 mph 31.1 mph N/A   Partly Cloudy
8:53 PM 75.9 °F 35.1 °F 23% 29.72 in 10.0 mi South 19.6 mph - N/A   Partly Cloudy
9:53 PM 72.0 °F 37.9 °F 29% 29.73 in 10.0 mi South 20.7 mph - N/A   Clear
10:53 PM 68.0 °F 39.9 °F 36% 29.73 in 10.0 mi South 15.0 mph - N/A   Clear
11:53 PM 68.0 °F 39.0 °F 35% 29.72 in 10.0 mi South 19.6 mph - N/A   Clear